MOLNIYA 3-24

Last updated on Jan. 25, 2020, 4:43 a.m. UTC

1 15738U 85040A   20024.46825109  .00000137  00000-0 -46792-2 0  9996
2 15738  63.8837 228.1628 6456782 253.4689  37.8747  2.55628367281501
UTC
Height (km)
Latitude
Longitude
Inclination
Orbital Period
UTC large
Height (km)
Speed (km/s)
/
Latitude / Longitude
Inclination (degrees)
Orbital Period (minutes)
Azimuth
Elevation
Range (km)
Doppler Factor
iOS Compass Heading
iOS Angle

Next 30 passes for location: Hong Kong

Rise time Rise Azimuth (degrees) Set time Set Azimuth (degrees) Duration Max altitude (degrees)

No matching passes for this satellites